When you browse on this site, cookies collect data to enhance your experience and personalize the content and advertising you see.
Visit our Privacy Policy to learn more. By continuing to use the site, you agree to this use of cookies and data.
  • In Slovakia
  • List of Countries
  • For 7 days
  • Water Temperature
  • Weather Map
  • Weather Widgets
  • user-avatar
    Login

    Hourly Weather Vanadzor

    Today, 5 June, Friday

    Time Temperature Precipitation Wind Pressure Humidity
    00:00 +12°C° 0 mm 2 mps 635 mmHg 67%
    01:00 +12°C° 0 mm 2 mps 635 mmHg 70%
    02:00 +10°C° 0 mm 2 mps 635 mmHg 72%
    03:00 +10°C° 0 mm 2 mps 635 mmHg 75%
    04:00 +12°C° 0 mm 1 mps 635 mmHg 75%
    05:00 +12°C° 0 mm 1 mps 636 mmHg 75%
    06:00 +13°C° 0 mm 1 mps 636 mmHg 75%
    07:00 +15°C° 0 mm 2 mps 637 mmHg 67%
    08:00 +17°C° 0 mm 2 mps 637 mmHg 59%
    09:00 +19°C° 0 mm 2 mps 638 mmHg 51%
    10:00 +20°C° 0 mm 3 mps 638 mmHg 50%
    11:00 +20°C° 0 mm 4 mps 638 mmHg 48%
    12:00 +21°C° 0 mm 5 mps 638 mmHg 47%
    13:00 +21°C° 0.1 mm 4 mps 638 mmHg 47%
    14:00 +21°C° 0.1 mm 4 mps 638 mmHg 47%
    15:00 +21°C° 0.1 mm 4 mps 638 mmHg 46%
    16:00 +20°C° 0.4 mm 3 mps 638 mmHg 55%
    17:00 +19°C° 0.4 mm 2 mps 638 mmHg 65%
    18:00 +18°C° 0.4 mm 1 mps 638 mmHg 74%
    19:00 +15°C° 0.2 mm 1 mps 637 mmHg 76%
    20:00 +13°C° 0.2 mm 1 mps 637 mmHg 79%
    21:00 +11°C° 0.2 mm 1 mps 637 mmHg 82%
    22:00 +11°C° 0.1 mm 1 mps 637 mmHg 81%
    23:00 +11°C° 0.1 mm 1 mps 637 mmHg 80%

    Tomorrow, 6 June, Saturday

    Time Temperature Precipitation Wind Pressure Humidity
    00:00 +11°C° 0.1 mm 1 mps 637 mmHg 79%
    01:00 +10°C° 0 mm 1 mps 637 mmHg 79%
    02:00 +10°C° 0 mm 1 mps 637 mmHg 78%
    03:00 +10°C° 0 mm 1 mps 637 mmHg 78%
    04:00 +11°C° 0 mm 1 mps 638 mmHg 78%
    05:00 +12°C° 0 mm 1 mps 638 mmHg 78%
    06:00 +12°C° 0 mm 0 mps 639 mmHg 78%
    07:00 +15°C° 0 mm 1 mps 639 mmHg 73%
    08:00 +16°C° 0 mm 1 mps 640 mmHg 67%
    09:00 +19°C° 0 mm 1 mps 640 mmHg 62%
    10:00 +20°C° 0.2 mm 1 mps 640 mmHg 60%
    11:00 +19°C° 0.2 mm 2 mps 640 mmHg 58%
    12:00 +20°C° 0.2 mm 2 mps 640 mmHg 56%
    13:00 +20°C° 0.5 mm 2 mps 640 mmHg 56%
    14:00 +20°C° 0.5 mm 2 mps 639 mmHg 56%
    15:00 +20°C° 0.5 mm 2 mps 639 mmHg 55%
    16:00 +19°C° 0.1 mm 2 mps 639 mmHg 61%
    17:00 +19°C° 0.1 mm 2 mps 639 mmHg 66%
    18:00 +18°C° 0.1 mm 2 mps 639 mmHg 71%
    19:00 +16°C° 0 mm 1 mps 638 mmHg 75%
    20:00 +14°C° 0 mm 1 mps 638 mmHg 80%
    21:00 +11°C° 0 mm 1 mps 638 mmHg 84%
    22:00 +11°C° 0 mm 1 mps 638 mmHg 83%
    23:00 +11°C° 0 mm 1 mps 638 mmHg 82%

    Day after tomorrow, 7 June, Sunday

    Time Temperature Precipitation Wind Pressure Humidity
    00:00 +10°C° 0 mm 1 mps 638 mmHg 81%
    01:00 +10°C° 0 mm 1 mps 637 mmHg 80%
    02:00 +10°C° 0 mm 1 mps 637 mmHg 79%
    03:00 +9°C° 0 mm 1 mps 637 mmHg 78%
    04:00 +11°C° 0 mm 1 mps 637 mmHg 77%
    05:00 +12°C° 0 mm 1 mps 638 mmHg 76%
    06:00 +13°C° 0 mm 1 mps 638 mmHg 75%
    07:00 +14°C° 0 mm 1 mps 638 mmHg 70%
    08:00 +16°C° 0 mm 1 mps 639 mmHg 65%
    09:00 +19°C° 0 mm 1 mps 639 mmHg 61%
    10:00 +20°C° 0 mm 1 mps 639 mmHg 59%
    11:00 +20°C° 0 mm 2 mps 640 mmHg 57%
    12:00 +21°C° 0 mm 2 mps 640 mmHg 55%
    13:00 +23°C° 0 mm 2 mps 639 mmHg 57%
    14:00 +23°C° 0 mm 2 mps 639 mmHg 59%
    15:00 +23°C° 0 mm 2 mps 639 mmHg 61%
    16:00 +21°C° 0 mm 2 mps 638 mmHg 67%
    17:00 +20°C° 0 mm 2 mps 638 mmHg 74%
    18:00 +20°C° 0 mm 2 mps 638 mmHg 80%
    19:00 +19°C° 0 mm 1 mps 637 mmHg 85%
    20:00 +16°C° 0 mm 1 mps 637 mmHg 89%
    21:00 +14°C° 0 mm 1 mps 637 mmHg 94%
    22:00 +13°C° 0 mm 1 mps 637 mmHg 93%
    23:00 +13°C° 0 mm 1 mps 636 mmHg 93%

    8 June, Monday

    Time Temperature Precipitation Wind Pressure Humidity
    00:00 +13°C° 0 mm 1 mps 636 mmHg 93%
    01:00 +12°C° 0 mm 1 mps 636 mmHg 93%
    02:00 +12°C° 0 mm 1 mps 636 mmHg 93%
    03:00 +12°C° 0 mm 1 mps 636 mmHg 93%
    04:00 +13°C° 0 mm 1 mps 636 mmHg 91%
    05:00 +14°C° 0 mm 1 mps 636 mmHg 90%
    06:00 +15°C° 0 mm 1 mps 636 mmHg 88%
    07:00 +16°C° 0 mm 1 mps 637 mmHg 81%
    08:00 +19°C° 0 mm 1 mps 637 mmHg 74%
    09:00 +21°C° 0 mm 1 mps 638 mmHg 68%
    10:00 +22°C° 0 mm 1 mps 638 mmHg 65%
    11:00 +23°C° 0 mm 2 mps 638 mmHg 62%
    12:00 +24°C° 0 mm 2 mps 638 mmHg 59%
    13:00 +24°C° 0.3 mm 2 mps 637 mmHg 63%
    14:00 +24°C° 0.3 mm 2 mps 637 mmHg 66%
    15:00 +23°C° 0.3 mm 2 mps 636 mmHg 69%
    16:00 +23°C° 0.3 mm 2 mps 636 mmHg 74%
    17:00 +21°C° 0.3 mm 2 mps 636 mmHg 79%
    18:00 +21°C° 0.3 mm 1 mps 636 mmHg 84%
    19:00 +19°C° 0.4 mm 1 mps 635 mmHg 86%
    20:00 +18°C° 0.4 mm 1 mps 635 mmHg 89%
    21:00 +15°C° 0.4 mm 1 mps 635 mmHg 91%
    22:00 +14°C° 0 mm 1 mps 635 mmHg 91%
    23:00 +14°C° 0 mm 1 mps 635 mmHg 91%

    9 June, Tuesday

    Time Temperature Precipitation Wind Pressure Humidity
    00:00 +14°C° 0 mm 1 mps 635 mmHg 91%
    01:00 +13°C° 0 mm 1 mps 635 mmHg 90%
    02:00 +13°C° 0 mm 1 mps 635 mmHg 90%
    03:00 +13°C° 0 mm 1 mps 634 mmHg 90%
    04:00 +13°C° 0 mm 1 mps 635 mmHg 88%
    05:00 +14°C° 0 mm 1 mps 635 mmHg 86%
    06:00 +15°C° 0 mm 1 mps 636 mmHg 84%
    07:00 +18°C° 0 mm 1 mps 636 mmHg 78%
    08:00 +19°C° 0 mm 1 mps 637 mmHg 73%
    09:00 +20°C° 0 mm 2 mps 637 mmHg 67%
    10:00 +21°C° 0.3 mm 2 mps 637 mmHg 66%
    11:00 +21°C° 0.3 mm 2 mps 637 mmHg 65%
    12:00 +23°C° 0.3 mm 2 mps 637 mmHg 64%
    13:00 +22°C° 0.6 mm 3 mps 637 mmHg 66%
    14:00 +22°C° 0.6 mm 3 mps 637 mmHg 68%
    15:00 +22°C° 0.6 mm 3 mps 636 mmHg 70%
    16:00 +21°C° 0.4 mm 3 mps 636 mmHg 74%
    17:00 +20°C° 0.4 mm 3 mps 636 mmHg 77%
    18:00 +20°C° 0.4 mm 2 mps 636 mmHg 81%
    19:00 +18°C° 0.1 mm 2 mps 636 mmHg 84%
    20:00 +16°C° 0.1 mm 2 mps 636 mmHg 87%
    21:00 +14°C° 0.1 mm 1 mps 636 mmHg 90%
    22:00 +14°C° 0.4 mm 1 mps 636 mmHg 90%
    23:00 +14°C° 0.4 mm 1 mps 636 mmHg 89%

    10 June, Wednesday

    Time Temperature Precipitation Wind Pressure Humidity
    00:00 +14°C° 0.4 mm 1 mps 636 mmHg 89%
    01:00 +13°C° 0 mm 1 mps 636 mmHg 88%
    02:00 +13°C° 0 mm 1 mps 636 mmHg 87%
    03:00 +13°C° 0 mm 1 mps 636 mmHg 86%
    04:00 +13°C° 0 mm 1 mps 636 mmHg 86%
    05:00 +14°C° 0 mm 1 mps 636 mmHg 85%
    06:00 +15°C° 0 mm 1 mps 637 mmHg 84%
    07:00 +16°C° 0.1 mm 1 mps 637 mmHg 80%
    08:00 +19°C° 0.1 mm 1 mps 637 mmHg 75%
    09:00 +20°C° 0.1 mm 2 mps 638 mmHg 71%
    10:00 +20°C° 0.7 mm 2 mps 638 mmHg 70%
    11:00 +21°C° 0.7 mm 2 mps 638 mmHg 69%
    12:00 +21°C° 0.7 mm 2 mps 638 mmHg 68%
    13:00 +21°C° 0.9 mm 2 mps 638 mmHg 69%
    14:00 +21°C° 0.9 mm 2 mps 638 mmHg 70%
    15:00 +21°C° 0.9 mm 2 mps 637 mmHg 71%
    16:00 +21°C° 0.6 mm 2 mps 637 mmHg 74%
    17:00 +20°C° 0.6 mm 2 mps 637 mmHg 78%
    18:00 +19°C° 0.6 mm 2 mps 637 mmHg 81%
    19:00 +18°C° 0.5 mm 2 mps 636 mmHg 84%
    20:00 +16°C° 0.5 mm 1 mps 636 mmHg 86%
    21:00 +14°C° 0.5 mm 1 mps 636 mmHg 88%
    22:00 +14°C° 0.1 mm 1 mps 636 mmHg 87%
    23:00 +14°C° 0.1 mm 1 mps 636 mmHg 85%
    Show more